QPF
0.00 0.00 0.00 0.00 0.00 0.00 0.00 0.00 0.00 0.00 0.00 0.00 0.00 0.00 0.00 0.00 0.00 0.00 0.00 0.00 0.00 0.00 0.00 0.00 0.00 0.00 0.00 0.00 0.00 0.00 0.00 0.02 0.02 0.01 0.00 0.00 0.00 0.00 0.00 0.00 0.00 0.00 0.00 0.00 0.00
0.00 0.00 0.00 0.00 0.00 0.00 0.00 0.00 0.00 0.00 0.00 0.00 0.00 0.00 0.00 0.00 0.00 0.00 0.00 0.00 0.00 0.00 0.00 0.00 0.00 0.00 0.00 0.00 0.00 0.00 0.03 0.02 0.01 0.00 0.00 0.00 0.00 0.00 0.00 0.00 0.00 0.00 0.00 0.00 0.00
0.00 0.00 0.00 0.00 0.00 0.00 0.00 0.00 0.00 0.00 0.00 0.00 0.00 0.00 0.00 0.00 0.00 0.00 0.00 0.00 0.00 0.00 0.00 0.00 0.00 0.00 0.00 0.00 0.00 0.00 0.01 0.00 0.00 0.00 0.00 0.00 0.00 0.00 0.00 0.00 0.00 0.00 0.00 0.00 0.00
0.00 0.00 0.00 0.00 0.00 0.00 0.00 0.00 0.00 0.00 0.00 0.00 0.00 0.00 0.00 0.00 0.00 0.00 0.00 0.00 0.00 0.00 0.00 0.00 0.00 0.00 0.00 0.00 0.00 0.00 0.00 0.00 0.00 0.00 0.00 0.00 0.00 0.00 0.00 0.00 0.00 0.00 0.00 0.00 0.00
0.00 0.00 0.00 0.00 0.00 0.00 0.00 0.00 0.00 0.00 0.00 0.00 0.00 0.00 0.00 0.00 0.00 0.00 0.00 0.00 0.00 0.00 0.00 0.00 0.00 0.00 0.00 0.00 0.00 0.00 0.00 0.00 0.00 0.00 0.00 0.00 0.00 0.00 0.00 0.00 0.00 0.00 0.00 0.00 0.00
0.00 0.00 0.00 0.00 0.00 0.00 0.00 0.00 0.00 0.00 0.00 0.00 0.00 0.00 0.00 0.00 0.00 0.00 0.00 0.00 0.00 0.00 0.00 0.00 0.00 0.00 0.00 0.00 0.00 0.00 0.00 0.00 0.00 0.00 0.00 0.00 0.00 0.00 0.00 0.00 0.00 0.00 0.00 0.00 0.00
0.00 0.00 0.00 0.00 0.00 0.00 0.00 0.00 0.00 0.00 0.00 0.00 0.00 0.00 0.00 0.00 0.00 0.00 0.00 0.00 0.00 0.00 0.00 0.00 0.00 0.00 0.00 0.00 0.00 0.00 0.00 0.00 0.00 0.00 0.00 0.00 0.00 0.00 0.00 0.00 0.00 0.00 0.00 0.00 0.00
0.00 0.00 0.00 0.00 0.00 0.00 0.00 0.00 0.00 0.00 0.00 0.00 0.00 0.00 0.00 0.00 0.00 0.00 0.00 0.00 0.00 0.00 0.00 0.00 0.00 0.00 0.00 0.00 0.00 0.00 0.00 0.00 0.00 0.00 0.00 0.00 0.00 0.00 0.00 0.00 0.00 0.00 0.00 0.00 0.00
0.00 0.00 0.00 0.00 0.00 0.00 0.00 0.00 0.00 0.00 0.00 0.00 0.00 0.00 0.00 0.00 0.00 0.00 0.00 0.00 0.00 0.00 0.00 0.00 0.00 0.00 0.00 0.00 0.00 0.00 0.00 0.00 0.00 0.00 0.00 0.00 0.00 0.00 0.00 0.00 0.00 0.00 0.00 0.00 0.00
0.00 0.00 0.00 0.00 0.00 0.00 0.00 0.00 0.00 0.00 0.00 0.00 0.00 0.00 0.00 0.00 0.00 0.00 0.00 0.00 0.00 0.00 0.00 0.00 0.00 0.00 0.00 0.00 0.01 0.01 0.00 0.00 0.00 0.00 0.00 0.00 0.00 0.00 0.00 0.00 0.00 0.00 0.00 0.00 0.00
0.00 0.00 0.00 0.00 0.00 0.00 0.00 0.00 0.00 0.00 0.00 0.00 0.00 0.00 0.00 0.00 0.00 0.00 0.00 0.00 0.00 0.00 0.00 0.00 0.00 0.00 0.00 0.00 0.00 0.00 0.00 0.00 0.00 0.00 0.00 0.00 0.00 0.00 0.00 0.00 0.00 0.00 0.00 0.00 0.00
0.00 0.00 0.00 0.00 0.00 0.00 0.00 0.00 0.00 0.00 0.00 0.00 0.00 0.00 0.00 0.00 0.00 0.00 0.00 0.00 0.00 0.00 0.00 0.00 0.00 0.00 0.00 0.00 0.00 0.00 0.00 0.00 0.00 0.00 0.00 0.00 0.00 0.00 0.00 0.00 0.00 0.00 0.00 0.00 0.00
0.00 0.00 0.00 0.00 0.00 0.00 0.00 0.00 0.00 0.00 0.00 0.00 0.00 0.00 0.00 0.00 0.00 0.00 0.00 0.00 0.00 0.00 0.00 0.00 0.00 0.00 0.00 0.00 0.00 0.00 0.00 0.00 0.00 0.00 0.00 0.00 0.00 0.00 0.00 0.00 0.00 0.00 0.00 0.00 0.00
0.00 0.00 0.00 0.00 0.00 0.00 0.00 0.00 0.00 0.00 0.00 0.00 0.00 0.00 0.00 0.00 0.00 0.00 0.00 0.00 0.00 0.00 0.00 0.00 0.00 0.00 0.00 0.00 0.00 0.00 0.00 0.00 0.00 0.00 0.00 0.00 0.00 0.00 0.00 0.00 0.00 0.00 0.00 0.00 0.00
0.00 0.00 0.00 0.00 0.00 0.00 0.00 0.00 0.00 0.00 0.00 0.00 0.00 0.00 0.00 0.00 0.00 0.00 0.00 0.00 0.00 0.00 0.00 0.00 0.00 0.00 0.00 0.00 0.00 0.00 0.00 0.00 0.00 0.00 0.00 0.00 0.00 0.00 0.00 0.00 0.00 0.00 0.00 0.00 0.00
0.00 0.00 0.00 0.00 0.00 0.00 0.00 0.00 0.00 0.00 0.00 0.00 0.00 0.00 0.00 0.00 0.00 0.00 0.00 0.00 0.00 0.00 0.00 0.00 0.00 0.00 0.00 0.00 0.00 0.00 0.00 0.00 0.00 0.00 0.00 0.00 0.00 0.00 0.00 0.00 0.00 0.00 0.00 0.00 0.00
0.00 0.00 0.00 0.00 0.00 0.00 0.00 0.00 0.00 0.00 0.00 0.00 0.00 0.00 0.00 0.00 0.00 0.00 0.00 0.00 0.00 0.00 0.00 0.00 0.00 0.00 0.00 0.00 0.00 0.00 0.00 0.00 0.00 0.00 0.00 0.00 0.00 0.00 0.00 0.00 0.00 0.00 0.00 0.00 0.00
0.00 0.00 0.00 0.00 0.00 0.00 0.00 0.00 0.00 0.00 0.00 0.00 0.00 0.00 0.00 0.00 0.00 0.00 0.00 0.00 0.00 0.00 0.00 0.00 0.00 0.00 0.00 0.00 0.00 0.00 0.00 0.00 0.00 0.00 0.00 0.00 0.00 0.00 0.00 0.00 0.00 0.00 0.00 0.00 0.00
0.00 0.00 0.00 0.00 0.00 0.00 0.00 0.00 0.00 0.00 0.00 0.00 0.00 0.00 0.00 0.00 0.00 0.00 0.00 0.00 0.00 0.00 0.00 0.00 0.00 0.00 0.00 0.00 0.00 0.00 0.00 0.00 0.00 0.00 0.00 0.00 0.00 0.00 0.00 0.00 0.00 0.00 0.00 0.00 0.00
0.00 0.00 0.00 0.00 0.00 0.00 0.00 0.00 0.00 0.00 0.00 0.00 0.00 0.00 0.00 0.00 0.00 0.00 0.00 0.00 0.00 0.00 0.00 0.00 0.00 0.00 0.00 0.00 0.00 0.00 0.00 0.00 0.00 0.01 0.00 0.00 0.00 0.00 0.01 0.00 0.00 0.00 0.00 0.00 0.00
0.00 0.00 0.00 0.00 0.00 0.00 0.00 0.00 0.00 0.00 0.00 0.00 0.00 0.00 0.00 0.00 0.00 0.00 0.00 0.00 0.00 0.00 0.00 0.00 0.00 0.00 0.00 0.00 0.00 0.00 0.00 0.00 0.00 0.00 0.01 0.01 0.00 0.00 0.00 0.00 0.00 0.00 0.00 0.01 0.04
0.00 0.00 0.00 0.00 0.00 0.00 0.00 0.00 0.00 0.00 0.00 0.00 0.00 0.00 0.00 0.00 0.00 0.00 0.00 0.00 0.00 0.00 0.00 0.00 0.00 0.00 0.00 0.00 0.00 0.00 0.00 0.00 0.01 0.01 0.02 0.04 0.03 0.00 0.00 0.00 0.00 0.00 0.00 0.00 0.03
0.00 0.00 0.00 0.00 0.00 0.00 0.00 0.00 0.00 0.00 0.00 0.00 0.00 0.00 0.00 0.00 0.00 0.00 0.00 0.00 0.00 0.00 0.00 0.00 0.00 0.00 0.00 0.00 0.00 0.00 0.00 0.00 0.00 0.01 0.01 0.05 0.01 0.01 0.00 0.00 0.01 0.00 0.00 0.02 0.05
0.00 0.00 0.00 0.00 0.00 0.00 0.00 0.00 0.00 0.00 0.00 0.00 0.00 0.00 0.00 0.00 0.00 0.00 0.00 0.00 0.00 0.00 0.00 0.00 0.00 0.00 0.00 0.00 0.00 0.00 0.00 0.00 0.00 0.04 0.04 0.04 0.02 0.03 0.02 0.01 0.01 0.00 0.03 0.06 0.03
0.00 0.00 0.00 0.00 0.00 0.00 0.00 0.00 0.00 0.00 0.00 0.00 0.00 0.00 0.00 0.00 0.00 0.00 0.00 0.00 0.00 0.00 0.00 0.00 0.00 0.00 0.00 0.00 0.00 0.00 0.00 0.00 0.00 0.01 0.04 0.02 0.03 0.03 0.02 0.00 0.00 0.00 0.08 0.10 0.01
0.00 0.00 0.00 0.00 0.00 0.00 0.00 0.00 0.00 0.00 0.00 0.00 0.00 0.00 0.00 0.00 0.00 0.00 0.00 0.00 0.00 0.00 0.00 0.00 0.00 0.00 0.00 0.00 0.00 0.00 0.00 0.00 0.00 0.00 0.00 0.02 0.04 0.00 0.00 0.00 0.00 0.01 0.03 0.02 0.00
0.00 0.00 0.00 0.00 0.00 0.00 0.00 0.00 0.00 0.00 0.00 0.00 0.00 0.00 0.00 0.00 0.00 0.00 0.00 0.00 0.00 0.00 0.00 0.00 0.00 0.00 0.00 0.00 0.00 0.00 0.00 0.00 0.00 0.00 0.01 0.01 0.00 0.00 0.00 0.00 0.00 0.00 0.01 0.01 0.00
MSLP
1017.95 1017.60 1017.29 1017.09 1016.90 1016.75 1016.49 1016.23 1016.08 1015.92 1015.67 1015.35 1015.20 1014.99 1014.69 1014.41 1013.87 1013.22 1010.90 1009.77 1009.50 1009.88 1010.11 1008.43 1007.97 1006.86 1006.17 1004.95 1004.64 1004.08 1003.76 1004.54 1004.37 1003.94 1003.24 1003.52 1003.66 1003.99 1004.08 1003.90 1004.61 1005.11 1005.66 1007.01 1008.31
1018.08 1017.74 1017.39 1017.08 1016.92 1016.68 1016.45 1016.31 1016.11 1015.96 1015.67 1015.38 1015.19 1014.96 1014.73 1014.56 1013.09 1010.64 1009.40 1009.65 1009.82 1009.81 1009.25 1007.56 1006.30 1006.13 1004.75 1004.40 1004.01 1003.80 1006.36 1006.10 1003.80 1002.86 1004.20 1003.15 1003.12 1003.33 1003.71 1003.59 1003.88 1004.82 1006.42 1007.35 1008.25
1018.11 1017.68 1017.34 1017.08 1016.83 1016.57 1016.38 1016.21 1016.05 1015.93 1015.66 1015.38 1015.16 1014.96 1014.80 1014.52 1012.05 1008.76 1009.02 1009.42 1009.85 1009.74 1008.62 1007.27 1006.45 1005.68 1004.22 1004.07 1003.69 1003.17 1006.63 1003.51 1003.70 1003.47 1003.39 1002.95 1002.89 1002.89 1003.08 1003.28 1003.92 1004.40 1005.19 1006.95 1007.78
1018.22 1017.76 1017.43 1017.12 1016.84 1016.53 1016.25 1016.08 1016.01 1015.83 1015.56 1015.26 1015.09 1014.89 1014.70 1013.46 1009.27 1008.39 1009.11 1009.38 1009.86 1009.41 1008.37 1006.87 1005.90 1004.74 1004.00 1003.62 1003.95 1003.68 1004.00 1003.82 1003.38 1003.71 1003.54 1003.21 1003.06 1002.88 1003.23 1004.08 1004.96 1004.96 1005.49 1006.66 1007.47
1018.32 1017.87 1017.49 1017.09 1016.71 1016.41 1016.16 1015.97 1015.80 1015.68 1015.43 1015.19 1014.96 1014.79 1014.33 1011.30 1007.87 1008.48 1009.14 1009.54 1009.41 1009.16 1007.79 1006.43 1005.50 1004.59 1003.88 1003.66 1003.75 1003.62 1003.31 1003.59 1003.44 1003.80 1003.44 1003.56 1002.93 1003.18 1003.56 1004.81 1005.23 1005.45 1005.80 1006.36 1007.10
1018.27 1017.82 1017.41 1017.04 1016.68 1016.35 1016.07 1015.88 1015.70 1015.52 1015.28 1014.97 1014.81 1014.76 1013.09 1008.78 1007.15 1007.82 1008.06 1008.80 1008.19 1008.06 1007.07 1006.30 1005.51 1005.46 1004.58 1004.04 1003.73 1003.72 1003.72 1003.45 1003.34 1003.20 1003.41 1003.57 1002.81 1003.55 1004.32 1005.02 1005.34 1005.75 1005.89 1006.41 1007.20
1018.46 1017.87 1017.36 1016.92 1016.50 1016.18 1015.93 1015.68 1015.47 1015.25 1015.02 1014.76 1014.60 1013.73 1010.86 1007.65 1007.03 1007.26 1007.54 1007.74 1007.69 1007.34 1006.59 1006.24 1006.09 1005.63 1004.82 1003.83 1004.10 1003.89 1003.68 1003.86 1003.38 1003.25 1003.16 1003.60 1002.87 1003.37 1004.29 1004.92 1005.31 1005.86 1006.39 1006.96 1007.56
1018.43 1017.86 1017.29 1016.77 1016.31 1015.92 1015.64 1015.37 1015.16 1014.92 1014.73 1014.49 1014.41 1012.88 1008.53 1007.26 1007.03 1007.17 1007.18 1007.11 1007.32 1007.27 1006.92 1006.62 1006.29 1005.83 1005.09 1004.57 1004.22 1003.54 1003.44 1003.34 1004.05 1003.52 1003.22 1003.75 1003.21 1004.63 1004.89 1004.51 1004.59 1005.56 1006.38 1007.13 1007.94
1018.35 1017.68 1017.12 1016.59 1016.09 1015.64 1015.29 1014.93 1014.49 1014.38 1014.39 1014.21 1013.58 1011.29 1007.33 1007.98 1007.18 1006.74 1006.88 1006.65 1007.10 1007.07 1006.93 1006.93 1006.50 1005.50 1004.58 1004.17 1003.56 1004.27 1004.09 1005.37 1005.05 1003.19 1003.40 1003.29 1002.99 1004.15 1004.21 1004.40 1004.74 1005.26 1006.11 1006.93 1007.83
1018.31 1017.53 1016.93 1016.31 1015.85 1015.43 1015.04 1014.78 1014.37 1014.25 1013.93 1012.80 1011.24 1009.79 1007.25 1006.31 1006.17 1006.50 1006.75 1006.66 1006.67 1006.74 1006.83 1006.42 1005.84 1004.93 1004.36 1004.87 1005.25 1005.31 1005.97 1005.55 1004.11 1003.95 1003.51 1002.64 1002.34 1003.50 1003.39 1004.05 1004.45 1005.06 1005.78 1006.55 1007.21
1018.27 1017.45 1016.75 1016.13 1015.62 1015.19 1014.61 1013.89 1013.47 1012.06 1010.81 1008.39 1007.54 1006.69 1005.63 1005.75 1006.37 1006.34 1006.46 1006.50 1006.21 1006.15 1005.84 1005.33 1004.72 1004.08 1004.73 1006.49 1004.24 1004.17 1003.69 1003.18 1002.60 1003.02 1002.42 1002.37 1002.37 1002.30 1002.54 1003.06 1004.00 1004.68 1005.57 1006.36 1006.75
1018.09 1017.41 1016.57 1015.96 1015.44 1014.91 1014.35 1010.70 1008.94 1008.48 1007.54 1007.30 1006.75 1006.22 1006.25 1005.68 1005.65 1005.59 1006.13 1006.03 1005.76 1005.29 1005.06 1004.84 1004.23 1004.78 1004.32 1003.93 1004.09 1003.60 1003.16 1002.75 1003.28 1003.42 1002.95 1002.48 1002.10 1002.02 1002.35 1002.28 1003.20 1004.03 1005.39 1006.23 1006.86
1017.85 1017.20 1016.37 1015.77 1015.23 1014.57 1011.47 1009.16 1008.60 1008.23 1006.75 1005.68 1005.98 1005.82 1005.52 1005.80 1005.06 1005.00 1005.71 1005.36 1004.85 1004.63 1004.62 1003.73 1003.98 1004.86 1003.77 1003.90 1003.75 1003.23 1003.78 1002.77 1002.28 1001.92 1001.68 1001.58 1002.12 1001.50 1003.15 1002.26 1002.74 1003.86 1004.76 1005.89 1006.64
1017.63 1016.97 1016.22 1015.53 1015.14 1010.48 1009.57 1008.75 1008.59 1008.43 1006.15 1004.88 1005.08 1005.06 1004.96 1005.25 1004.69 1004.12 1004.86 1004.74 1004.32 1003.90 1003.62 1003.28 1003.07 1003.28 1003.56 1003.35 1003.07 1002.51 1002.35 1002.74 1002.08 1001.95 1001.31 1001.53 1001.09 1000.90 1001.13 1001.55 1002.32 1003.28 1004.04 1005.16 1006.39
1017.27 1016.62 1015.99 1015.85 1013.15 1009.79 1008.90 1008.67 1008.50 1008.45 1004.72 1003.80 1003.76 1003.47 1004.33 1004.50 1003.43 1004.10 1004.25 1004.47 1004.21 1003.61 1003.98 1003.12 1002.75 1002.77 1002.79 1002.63 1002.75 1002.49 1002.46 1002.39 1002.34 1002.27 1002.17 1001.76 1002.28 1000.86 1002.64 1004.34 1003.10 1000.93 1003.89 1004.63 1006.22
1016.73 1016.19 1015.66 1014.03 1012.52 1009.45 1009.19 1008.92 1008.75 1007.10 1003.30 1003.01 1003.25 1003.69 1003.75 1003.87 1003.54 1003.27 1004.16 1004.57 1004.23 1004.03 1003.49 1003.07 1003.16 1002.86 1002.51 1002.74 1002.80 1002.61 1002.42 1002.37 1002.05 1001.79 1001.53 1002.85 1006.05 1002.70 1003.03 1002.67 1002.06 1002.25 1003.07 1004.36 1005.59
1016.06 1015.50 1015.40 1012.59 1009.44 1009.39 1009.10 1008.59 1006.99 1004.32 1002.61 1002.45 1002.67 1002.86 1003.10 1003.21 1003.31 1003.35 1003.69 1003.97 1004.11 1003.63 1003.00 1002.45 1001.90 1001.58 1002.06 1002.42 1002.08 1001.92 1002.21 1001.82 1000.98 1001.02 1001.17 1002.15 1004.24 1001.33 1001.32 1001.85 1002.07 1002.43 1003.26 1004.65 1005.95
1015.39 1014.50 1012.80 1011.26 1009.85 1009.76 1009.05 1007.81 1005.35 1003.12 1001.90 1001.77 1001.90 1002.38 1002.45 1002.33 1002.87 1002.99 1003.22 1003.02 1003.01 1003.08 1002.55 1002.24 1001.61 1001.76 1002.91 1002.65 1002.50 1002.57 1002.65 1002.15 1001.79 1001.87 1001.53 1001.29 1001.59 1002.34 1002.33 1003.03 1002.91 1002.66 1003.75 1004.78 1006.61
1014.56 1011.39 1010.44 1009.49 1009.80 1009.82 1008.34 1006.13 1003.95 1002.35 1001.89 1002.09 1002.01 1001.79 1001.87 1002.07 1002.55 1002.64 1002.70 1002.54 1002.90 1003.10 1003.26 1002.99 1002.23 1002.16 1002.29 1002.44 1003.16 1002.72 1002.62 1002.40 1002.79 1002.85 1002.52 1002.36 1002.24 1002.83 1003.22 1003.73 1003.60 1003.71 1003.94 1005.20 1006.65
1014.58 1010.72 1008.47 1009.38 1009.69 1009.21 1007.64 1005.20 1003.38 1003.28 1003.06 1002.69 1001.65 1001.67 1001.08 1001.44 1002.30 1002.09 1002.19 1003.04 1003.36 1004.43 1004.57 1004.30 1003.65 1003.27 1003.11 1002.74 1002.90 1002.76 1003.13 1003.27 1003.55 1005.19 1005.77 1003.71 1003.01 1003.28 1004.97 1004.79 1003.34 1003.74 1004.41 1005.68 1006.60
1014.07 1009.35 1008.74 1008.73 1009.26 1008.13 1006.21 1004.51 1003.80 1003.71 1003.76 1003.09 1001.96 1001.16 1001.25 1001.15 1001.43 1001.76 1002.05 1003.28 1004.21 1004.68 1005.27 1005.04 1004.78 1004.13 1003.48 1002.57 1002.06 1002.44 1003.23 1004.92 1006.20 1007.95 1007.69 1006.03 1005.12 1005.81 1005.68 1004.28 1003.81 1003.85 1004.32 1005.87 1007.13
1012.78 1008.52 1008.12 1008.46 1007.87 1006.65 1005.29 1004.53 1004.77 1004.38 1003.91 1003.50 1002.99 1001.95 1001.90 1001.82 1002.07 1002.28 1002.79 1003.89 1005.53 1005.87 1005.83 1005.84 1006.19 1005.07 1004.00 1003.25 1002.84 1003.42 1004.10 1004.77 1005.93 1007.01 1006.72 1007.42 1007.85 1007.36 1006.81 1005.74 1004.54 1004.31 1004.88 1005.59 1006.94
1013.01 1008.85 1007.82 1007.88 1006.34 1005.24 1005.13 1004.92 1004.77 1004.41 1003.68 1003.22 1003.02 1002.72 1002.76 1002.62 1003.11 1003.30 1003.76 1005.35 1006.47 1006.60 1007.18 1007.15 1006.63 1005.44 1003.88 1002.66 1003.28 1004.15 1004.59 1005.31 1006.66 1007.74 1008.22 1008.42 1007.38 1008.02 1008.02 1007.74 1007.79 1005.61 1004.94 1005.03 1006.60
1013.54 1008.65 1007.23 1007.39 1006.55 1006.17 1004.82 1004.80 1004.37 1004.22 1003.87 1003.49 1003.11 1002.79 1002.94 1002.98 1003.24 1003.76 1004.19 1005.85 1007.20 1007.67 1008.76 1008.78 1007.73 1006.75 1005.33 1004.44 1004.38 1004.51 1004.92 1005.50 1007.02 1008.13 1008.34 1008.48 1008.72 1009.66 1009.81 1009.64 1008.71 1007.68 1008.10 1007.93 1007.35
1012.78 1010.40 1010.22 1007.13 1006.56 1006.41 1006.18 1005.58 1004.34 1003.75 1003.89 1003.57 1003.27 1003.14 1003.04 1003.14 1003.03 1003.47 1004.11 1005.63 1007.15 1008.35 1008.62 1008.62 1007.77 1006.80 1005.69 1005.27 1005.24 1005.28 1005.64 1006.69 1007.43 1007.92 1009.44 1009.97 1010.77 1010.86 1010.81 1009.62 1009.44 1009.65 1010.16 1010.59 1009.98
1014.62 1013.39 1011.86 1009.63 1008.42 1007.52 1006.67 1005.58 1004.81 1003.74 1003.39 1003.37 1003.36 1002.96 1002.95 1003.10 1003.52 1003.59 1003.88 1005.22 1006.26 1007.54 1008.10 1008.40 1007.96 1007.08 1006.30 1005.35 1005.39 1005.82 1007.03 1007.82 1008.04 1009.09 1009.13 1010.28 1011.67 1011.33 1011.62 1011.31 1011.60 1012.00 1012.39 1013.18 1012.48
1016.52 1015.02 1013.74 1010.37 1008.36 1007.48 1005.83 1005.27 1005.02 1004.48 1004.19 1003.77 1003.02 1002.92 1003.29 1003.66 1004.61 1005.38 1006.04 1006.58 1007.05 1007.54 1007.65 1008.26 1007.90 1007.50 1005.98 1005.32 1005.81 1006.38 1007.64 1008.40 1009.15 1009.70 1010.15 1010.37 1012.23 1012.42 1013.18 1013.35 1013.51 1013.40 1013.53 1013.67 1013.13
Thickness
5741 5743 5745 5747 5749 5752 5755 5757 5760 5762 5765 5768 5771 5773 5777 5780 5785 5794 5799 5817 5820 5818 5817 5829 5828 5833 5839 5837 5846 5853 5815 5791 5796 5801 5817 5838 5818 5837 5845 5834 5833 5834 5828 5824 5821
5740 5742 5744 5747 5748 5751 5754 5757 5759 5761 5764 5767 5770 5773 5775 5777 5790 5802 5822 5820 5819 5819 5819 5822 5824 5831 5831 5835 5842 5832 5749 5739 5829 5837 5811 5836 5836 5834 5829 5832 5829 5828 5826 5825 5818
5741 5743 5745 5746 5748 5751 5753 5755 5757 5759 5762 5766 5768 5771 5773 5775 5787 5810 5824 5821 5818 5820 5827 5832 5834 5831 5827 5837 5838 5839 5745 5829 5831 5836 5838 5837 5839 5846 5835 5825 5829 5825 5827 5819 5815
5741 5744 5745 5747 5749 5751 5753 5755 5756 5758 5760 5763 5765 5768 5770 5781 5775 5822 5822 5821 5819 5820 5823 5826 5828 5824 5823 5820 5835 5818 5827 5831 5834 5834 5831 5828 5841 5836 5836 5825 5833 5835 5832 5821 5812
5740 5743 5745 5748 5750 5752 5754 5755 5756 5758 5760 5762 5763 5765 5772 5780 5802 5821 5819 5818 5819 5819 5817 5820 5818 5824 5816 5826 5829 5821 5831 5833 5835 5832 5834 5836 5833 5829 5827 5829 5833 5831 5827 5820 5815
5740 5744 5746 5748 5750 5752 5753 5755 5756 5757 5759 5761 5762 5762 5771 5776 5826 5824 5823 5818 5822 5819 5820 5824 5820 5825 5820 5821 5822 5829 5828 5830 5834 5834 5833 5822 5833 5828 5822 5828 5823 5821 5820 5819 5812
5739 5743 5747 5750 5752 5753 5754 5755 5757 5759 5760 5761 5762 5767 5778 5793 5827 5826 5825 5820 5825 5822 5815 5827 5829 5818 5825 5822 5833 5830 5815 5818 5826 5830 5826 5829 5820 5811 5824 5824 5816 5813 5812 5809 5805
5739 5743 5747 5751 5754 5756 5756 5758 5759 5761 5762 5763 5763 5773 5787 5823 5826 5824 5827 5822 5827 5828 5824 5829 5832 5821 5819 5831 5824 5819 5824 5799 5811 5822 5827 5819 5795 5801 5815 5819 5815 5811 5805 5801 5796
5738 5744 5748 5752 5756 5759 5760 5763 5765 5765 5764 5765 5770 5780 5790 5818 5810 5825 5827 5814 5818 5821 5824 5825 5822 5813 5823 5809 5807 5801 5781 5763 5776 5823 5816 5813 5802 5800 5819 5813 5806 5805 5801 5795 5790
5737 5744 5749 5754 5757 5760 5763 5764 5766 5766 5768 5774 5784 5775 5801 5799 5817 5820 5826 5822 5810 5809 5802 5806 5806 5800 5809 5786 5744 5757 5753 5752 5758 5797 5804 5810 5812 5807 5815 5809 5802 5800 5797 5791 5786
5735 5743 5749 5754 5758 5762 5765 5774 5773 5773 5782 5791 5794 5795 5808 5821 5823 5812 5821 5812 5812 5802 5781 5803 5793 5787 5788 5760 5803 5799 5801 5802 5816 5817 5813 5807 5806 5814 5820 5811 5799 5795 5789 5785 5782
5734 5741 5748 5754 5759 5764 5769 5787 5798 5801 5784 5803 5804 5805 5811 5820 5795 5809 5822 5795 5793 5780 5798 5794 5786 5795 5814 5817 5804 5805 5800 5801 5800 5806 5801 5801 5799 5813 5813 5813 5805 5797 5785 5780 5778
5733 5739 5748 5753 5759 5766 5788 5798 5812 5810 5786 5800 5805 5800 5805 5810 5797 5802 5811 5804 5795 5788 5791 5794 5797 5802 5810 5800 5792 5798 5778 5794 5799 5816 5821 5808 5785 5800 5790 5804 5806 5797 5790 5782 5773
5730 5738 5745 5753 5758 5796 5790 5807 5809 5809 5775 5786 5791 5802 5811 5809 5793 5828 5824 5810 5801 5795 5807 5807 5822 5810 5798 5793 5804 5787 5816 5801 5803 5794 5779 5813 5766 5806 5813 5799 5795 5789 5784 5779 5771
5729 5737 5743 5747 5770 5785 5797 5806 5808 5796 5750 5802 5803 5838 5817 5799 5814 5808 5832 5812 5789 5801 5799 5796 5808 5803 5795 5802 5809 5793 5813 5802 5797 5784 5784 5792 5768 5801 5762 5732 5765 5775 5779 5778 5767
5728 5736 5742 5756 5767 5792 5797 5801 5793 5759 5757 5791 5809 5798 5795 5802 5806 5818 5809 5818 5815 5796 5805 5804 5820 5811 5807 5808 5806 5810 5799 5795 5796 5791 5765 5747 5694 5759 5736 5767 5785 5792 5781 5777 5767
5728 5736 5741 5760 5779 5790 5794 5785 5757 5757 5812 5791 5792 5803 5797 5791 5796 5801 5792 5787 5776 5767 5775 5801 5810 5829 5822 5793 5811 5805 5785 5758 5763 5766 5753 5783 5733 5783 5794 5790 5787 5784 5774 5771 5760
5729 5738 5756 5767 5780 5783 5782 5763 5741 5789 5801 5819 5810 5805 5790 5805 5797 5799 5791 5787 5806 5798 5790 5780 5778 5802 5802 5793 5782 5783 5781 5763 5730 5741 5762 5798 5768 5768 5783 5780 5781 5783 5770 5763 5747
5731 5758 5763 5776 5775 5776 5767 5748 5766 5797 5812 5799 5804 5793 5794 5805 5800 5797 5795 5796 5799 5802 5772 5772 5777 5810 5810 5805 5790 5776 5766 5796 5761 5772 5759 5768 5777 5780 5770 5758 5766 5764 5762 5751 5742
5723 5751 5768 5770 5770 5767 5755 5752 5782 5795 5798 5798 5786 5801 5793 5799 5789 5798 5795 5797 5790 5791 5793 5775 5751 5787 5791 5800 5794 5780 5788 5753 5763 5696 5678 5745 5753 5752 5729 5712 5757 5758 5752 5743 5739
5722 5746 5761 5769 5766 5755 5745 5767 5780 5793 5793 5785 5793 5801 5803 5801 5802 5794 5793 5793 5790 5784 5785 5777 5763 5762 5781 5778 5778 5777 5763 5740 5735 5692 5672 5699 5724 5746 5734 5750 5755 5756 5756 5738 5726
5723 5731 5762 5764 5739 5754 5755 5770 5747 5775 5789 5786 5792 5799 5795 5800 5791 5792 5783 5781 5782 5778 5760 5772 5751 5737 5755 5783 5790 5774 5756 5752 5717 5702 5728 5695 5688 5724 5714 5740 5754 5754 5749 5742 5734
5709 5736 5759 5756 5731 5748 5759 5758 5767 5766 5776 5781 5780 5793 5796 5785 5767 5780 5780 5778 5772 5767 5753 5759 5745 5729 5747 5776 5775 5750 5754 5748 5730 5716 5695 5686 5714 5718 5717 5713 5701 5738 5750 5732 5722
5703 5723 5740 5743 5750 5739 5746 5747 5752 5773 5773 5781 5782 5792 5783 5777 5785 5768 5771 5765 5760 5757 5735 5739 5736 5727 5722 5738 5753 5739 5743 5742 5719 5682 5695 5703 5699 5690 5686 5681 5673 5720 5715 5687 5709
5707 5708 5707 5725 5731 5734 5737 5741 5746 5751 5771 5780 5772 5776 5775 5763 5774 5769 5776 5758 5753 5733 5740 5738 5722 5737 5746 5747 5743 5737 5733 5720 5708 5711 5675 5681 5665 5672 5682 5702 5703 5706 5697 5670 5675
5675 5677 5692 5708 5718 5720 5717 5735 5740 5757 5763 5761 5761 5777 5783 5768 5768 5758 5760 5758 5748 5747 5739 5739 5718 5731 5725 5743 5739 5725 5713 5707 5710 5695 5704 5683 5661 5684 5686 5688 5682 5677 5670 5652 5641
5662 5674 5674 5699 5716 5719 5733 5738 5741 5751 5761 5768 5775 5777 5770 5767 5769 5763 5759 5753 5748 5736 5734 5724 5722 5713 5714 5739 5728 5705 5702 5698 5692 5693 5687 5679 5665 5670 5663 5660 5655 5660 5658 5649 5657